This is the latest recevied weather packets stored in our database for station/object K9UO. If no packets are shown the sender has not sent any weather packets the latest 10 day(s).
| Time | Temp. | Humidity | Pressure | Rain* | Wind** | Luminosity | Snow |
|---|---|---|---|---|---|---|---|
| 1777594519 | 12.22° C | 55% | 1014.2 hPa | 0 mm | - | - | - |
| 1777593613 | 12.78° C | 54% | 1014.3 hPa | 0 mm | - | - | - |
| 1777592716 | 13.33° C | 51% | 1014.2 hPa | 0 mm | - | - | - |
| 1777591804 | 13.89° C | 49% | 1014.4 hPa | 0 mm | - | - | - |
| 1777590973 | 13.89° C | 47% | 1014.5 hPa | 0 mm | - | - | - |
| 1777590058 | 13.89° C | 47% | 1014.5 hPa | 0 mm | - | - | - |
| 1777589152 | 13.33° C | 48% | 1014.8 hPa | 0 mm | - | - | - |
| 1777588247 | 13.33° C | 50% | 1015 hPa | 0 mm | - | - | - |
| 1777587343 | 12.78° C | 49% | 1015 hPa | 0 mm | - | - | - |
| 1777586438 | 12.78° C | 49% | 1015.1 hPa | 0 mm | - | - | - |
| 1777585536 | 12.78° C | 49% | 1015.2 hPa | 0 mm | - | - | - |
| 1777584631 | 12.78° C | 51% | 1015.2 hPa | 0 mm | - | - | - |
| 1777583728 | 12.78° C | 50% | 1015.2 hPa | 0 mm | - | - | - |
| 1777582821 | 12.78° C | 49% | 1015.3 hPa | 0 mm | - | - | - |
| 1777581917 | 13.33° C | 48% | 1015.5 hPa | 0 mm | - | - | - |
| 1777581012 | 12.78° C | 47% | 1015.6 hPa | 0 mm | - | - | - |
| 1777580107 | 13.33° C | 48% | 1015.7 hPa | 0 mm | - | - | - |
| 1777579203 | 12.78° C | 49% | 1015.6 hPa | 0 mm | - | - | - |
| 1777578360 | 13.33° C | 49% | 1015.7 hPa | 0 mm | - | - | - |
| 1777577454 | 12.78° C | 49% | 1015.7 hPa | 0 mm | - | - | - |
| 1777576550 | 12.22° C | 50% | 1015.9 hPa | 0 mm | - | - | - |
| 1777575645 | 12.22° C | 50% | 1016 hPa | 0 mm | - | - | - |
| 1777574743 | 11.67° C | 50% | 1016.1 hPa | 0 mm | - | - | - |
| 1777573836 | 11.67° C | 49% | 1016.1 hPa | 0 mm | - | - | - |
| 1777572931 | 11.67° C | 50% | 1016.2 hPa | 0 mm | - | - | - |
* Rain latest hour (hover to see other rain measurements)
** Current wind speed in m/s (hover to see current wind gust speed)